Weather History for Hutchinson, MN

Change the Weather History Date:

Sunday, July 1, 2012

  Actual Average Record
Temperature  
Mean Temperature 78 °F -  
Max Temperature 89 °F 81 °F 97 °F (2011)
Min Temperature 66 °F 59 °F 45 °F (1969)
Cooling Degree Days 12    
Growing Degree Days 28 (Base 50)    
Moisture  
Dew Point 71 °F    
Average Humidity 79    
Maximum Humidity 97    
Minimum Humidity 51    
Precipitation  
Precipitation 0.00 in - - ()
Sea Level Pressure  
Sea Level Pressure 29.88 in    
Wind  
Wind Speed 4 mph (ESE)    
Max Wind Speed 14 mph    
Max Gust Speed 18 mph    
Visibility 10 miles    
Events Thunderstorm    
Averages and records for this station are not official NWS values.
T = Trace of Precipitation, MM = Missing Value Source: NWS Daily Summary

Daily Weather History Graph

Daily Weather History Graph

Search for Another Location

Airport:

Trip Planner

Search our weather history database for the weather conditions in past years. The results will help you decide how hot, cold, wet, or windy it might be!

Date:

Astronomy

Jul. 01, 2012 Rise Set
Actual Time 5:35 AM CDT 9:07 PM CDT
Civil Twilight 4:58 AM CDT 9:44 PM CDT
Nautical Twilight 4:09 AM CDT 10:32 PM CDT
Astronomical Twilight 3:06 AM CDT 11:36 PM CDT
Moon 7:09 PM CDT (7/1) 3:25 AM CDT (7/1)
Length of Visible Light 16h 45m
Length of Day
15h 31m
Waxing Gibbous, 94% of the Moon is Illuminated
Jul 1
Waxing Gibbous
Jul 3
Full
Jul 10
Last Quarter
Jul 18
New
Jul 26
First Quarter

Hourly Weather History & Observations

Time (CDT) Temp. Heat Index Dew Point Humidity Pressure Visibility Wind Dir Wind Speed Gust Speed Precip Events Conditions
12:11 AM 71.8 °F - 67.3 °F 86% 29.88 in 10.0 mi SE 4.6 mph - N/A   Clear
12:31 AM 74.3 °F - 69.4 °F 85% 29.89 in 10.0 mi Calm Calm - N/A   Clear
12:51 AM 72.7 °F - 68.5 °F 87% 29.89 in 7.0 mi Calm Calm - N/A   Clear
1:11 AM 74.3 °F - 69.1 °F 84% 29.89 in 10.0 mi East 4.6 mph - N/A   Clear
1:31 AM 74.3 °F - 66.9 °F 78% 29.88 in 10.0 mi East 5.8 mph - N/A   Clear
1:51 AM 71.8 °F - 67.1 °F 85% 29.88 in 10.0 mi East 3.5 mph - N/A   Clear
2:11 AM 70.7 °F - 66.6 °F 87% 29.88 in 10.0 mi SE 3.5 mph - N/A   Clear
2:31 AM 73.2 °F - 67.5 °F 82% 29.88 in 10.0 mi Calm Calm - N/A   Clear
2:51 AM 74.3 °F - 68.0 °F 81% 29.90 in 10.0 mi Calm Calm - N/A   Clear
3:11 AM 73.6 °F - 67.6 °F 82% 29.89 in 10.0 mi Calm Calm - N/A   Clear
3:31 AM 70.7 °F - 66.2 °F 86% 29.90 in 10.0 mi Calm Calm - N/A   Clear
3:51 AM 69.3 °F - 65.8 °F 89% 29.90 in 10.0 mi Calm Calm - N/A   Clear
4:11 AM 69.3 °F - 66.2 °F 90% 29.90 in 10.0 mi Calm Calm - N/A   Clear
4:31 AM 69.3 °F - 66.6 °F 91% 29.90 in 10.0 mi Calm Calm - N/A   Clear
4:51 AM 69.3 °F - 66.7 °F 92% 29.90 in 10.0 mi Calm Calm - N/A   Clear
5:11 AM 68.2 °F - 66.4 °F 94% 29.91 in 10.0 mi Calm Calm - N/A   Clear
5:31 AM 69.3 °F - 67.1 °F 93% 29.90 in 10.0 mi Calm Calm - N/A   Clear
5:51 AM 69.1 °F - 67.3 °F 94% 29.91 in 10.0 mi Calm Calm - N/A   Clear
6:11 AM 66.7 °F - 65.8 °F 97% 29.91 in 10.0 mi Calm Calm - N/A   Clear
6:31 AM 69.3 °F - 68.4 °F 97% 29.91 in 10.0 mi Calm Calm - N/A   Clear
7:11 AM 71.8 °F - 68.9 °F 91% 29.92 in 10.0 mi Calm Calm - N/A   Clear
7:31 AM 73.2 °F - 70.0 °F 90% 29.92 in 10.0 mi Calm Calm - N/A   Clear
7:51 AM 74.3 °F - 68.7 °F 83% 29.92 in 10.0 mi East 4.6 mph - N/A   Clear
8:11 AM 77.0 °F - 70.9 °F 81% 29.92 in 10.0 mi ESE 4.6 mph - N/A   Clear
8:31 AM 77.0 °F - 70.5 °F 80% 29.92 in 10.0 mi ESE 4.6 mph - N/A   Clear
8:51 AM 79.3 °F - 72.7 °F 80% 29.91 in 10.0 mi East 5.8 mph - N/A   Clear
9:11 AM 79.3 °F - 72.0 °F 78% 29.90 in 10.0 mi East 4.6 mph - N/A   Clear
9:31 AM 80.6 °F 85.0 °F 72.7 °F 77% 29.90 in 10.0 mi East 5.8 mph - N/A   Clear
9:50 AM 81.9 °F 87.7 °F 73.9 °F 77% 29.90 in 10.0 mi SE 4.6 mph - N/A   Clear
10:11 AM 82.4 °F 88.4 °F 73.9 °F 75% 29.89 in 10.0 mi SE 8.1 mph - N/A   Clear
10:31 AM 83.3 °F 90.2 °F 74.3 °F 74% 29.89 in 10.0 mi SE 5.8 mph - N/A   Clear
10:51 AM 84.4 °F 91.3 °F 73.8 °F 70% 29.89 in 10.0 mi SE 10.4 mph - N/A   Clear
11:31 AM 86.9 °F 96.4 °F 75.0 °F 68% 29.89 in 10.0 mi SE 10.4 mph - N/A   Clear
11:51 AM 86.9 °F 95.4 °F 74.5 °F 66% 29.89 in 10.0 mi SE 13.8 mph 17.3 mph N/A   Clear
12:11 PM 88.7 °F 99.3 °F 75.7 °F 65% 29.89 in 10.0 mi SE 9.2 mph - N/A   Clear
12:31 PM 89.6 °F 101.6 °F 76.3 °F 65% 29.88 in 10.0 mi ESE 9.2 mph - N/A   Clear
1:11 PM 89.6 °F 98.2 °F 73.4 °F 59% 29.88 in 10.0 mi SE 8.1 mph 17.3 mph N/A   Clear
1:30 PM 89.6 °F 97.2 °F 72.7 °F 57% 29.89 in 10.0 mi SE 9.2 mph - N/A   Clear
1:51 PM 89.6 °F 97.2 °F 72.7 °F 57% 29.89 in 10.0 mi SE 10.4 mph - N/A   Clear
2:11 PM 89.6 °F 94.3 °F 69.4 °F 51% 29.89 in 10.0 mi SSE 8.1 mph 18.4 mph N/A   Clear
2:30 PM 89.6 °F 96.2 °F 71.4 °F 55% 29.88 in 10.0 mi SSE 9.2 mph 16.1 mph N/A   Clear
2:51 PM 89.6 °F 96.6 °F 71.8 °F 56% 29.88 in 10.0 mi SSE 8.1 mph - N/A   Clear
3:11 PM 89.6 °F 97.2 °F 72.3 °F 57% 29.86 in 10.0 mi South 6.9 mph - N/A   Clear
3:31 PM 89.6 °F 95.2 °F 70.5 °F 53% 29.86 in 10.0 mi SSE 6.9 mph - N/A Thunderstorm Thunderstorm
3:51 PM 89.6 °F 98.2 °F 73.8 °F 59% 29.86 in 10.0 mi SSE 5.8 mph - N/A Thunderstorm Clear
4:11 PM 87.3 °F 95.8 °F 74.1 °F 65% 29.87 in 10.0 mi SSE 6.9 mph - N/A Thunderstorm Thunderstorm
4:31 PM 80.2 °F 82.8 °F 68.0 °F 66% 29.89 in 10.0 mi South 10.4 mph 17.3 mph N/A Thunderstorm Thunderstorm
5:11 PM 77.2 °F - 68.0 °F 73% 29.88 in 10.0 mi South 6.9 mph - N/A   Clear
5:31 PM 77.4 °F - 68.2 °F 73% 29.86 in 10.0 mi East 6.9 mph - N/A   Clear
5:51 PM 77.0 °F - 68.2 °F 74% 29.86 in 10.0 mi East 3.5 mph - N/A   Clear
6:10 PM 79.3 °F - 69.6 °F 72% 29.86 in 10.0 mi NE 3.5 mph - N/A   Clear
6:31 PM 79.3 °F - 68.9 °F 70% 29.85 in 10.0 mi East 3.5 mph - N/A   Clear
6:51 PM 79.9 °F - 69.8 °F 71% 29.85 in 10.0 mi East 4.6 mph - N/A   Clear
7:11 PM 79.5 °F - 70.9 °F 75% 29.84 in 10.0 mi East 4.6 mph - N/A   Clear
7:31 PM 79.5 °F - 70.9 °F 75% 29.84 in 10.0 mi East 4.6 mph - N/A   Clear
7:51 PM 79.7 °F - 72.3 °F 78% 29.83 in 10.0 mi East 5.8 mph - N/A   Clear
8:11 PM 81.9 °F 88.2 °F 74.7 °F 79% 29.84 in 10.0 mi East 6.9 mph - N/A   Clear
8:31 PM 80.6 °F 85.7 °F 74.3 °F 81% 29.84 in 10.0 mi East 6.9 mph - N/A   Clear
8:51 PM 80.6 °F 86.0 °F 74.8 °F 83% 29.83 in 10.0 mi East 6.9 mph - N/A   Scattered Clouds
9:08 PM 79.3 °F - 75.2 °F 87% 29.84 in 10.0 mi ESE 5.8 mph - N/A   Clear
9:31 PM 79.3 °F - 76.1 °F 90% 29.85 in 10.0 mi ESE 4.6 mph - N/A   Clear
9:51 PM 77.0 °F - 74.3 °F 91% 29.85 in 10.0 mi ESE 4.6 mph - N/A   Clear
10:11 PM 77.0 °F - 74.8 °F 93% 29.86 in 10.0 mi ESE 4.6 mph - N/A   Clear
10:31 PM 78.8 °F - 76.1 °F 91% 29.85 in 10.0 mi SE 5.8 mph - N/A   Clear
10:50 PM 78.3 °F - 75.6 °F 91% 29.85 in 10.0 mi SE 4.6 mph - N/A   Clear
11:10 PM 77.2 °F - 74.7 °F 92% 29.86 in 10.0 mi SE 4.6 mph - N/A   Clear
11:31 PM 77.0 °F - 74.8 °F 93% 29.86 in 7.0 mi SE 3.5 mph - N/A   Clear
11:51 PM 77.0 °F - 75.2 °F 94% 29.86 in 7.0 mi SE 3.5 mph - N/A   Clear